SEH1KS LGAV-LGKP

Flight info

Callsign SEH1KS
Flight time 0h 55m
Altitude 23000
Route KEA N132 NIBOX
Aircraft A21N/M-SDE2E3FGHIJ1RWXY/LB1

Departure

Time 2026-04-25 13:45
Airport Athens Eleftherios Venizelos International Airport (LGAV)

Arrival

Time 2026-04-25 14:40
Airport Karpathos Airport (LGKP)
Time Latitude Longitude Altitude Speed Heading
2026-04-25 12:54 37.93146 23.94371 307 ft 0 kts 217°
2026-04-25 13:32 37.93160 23.94384 308 ft 4 kts 216°
2026-04-25 13:33 37.93179 23.94402 307 ft 4 kts 218°
2026-04-25 13:33 37.93193 23.94424 307 ft 4 kts 271°
2026-04-25 13:33 37.93184 23.94453 306 ft 3 kts 306°
2026-04-25 13:33 37.93181 23.94458 309 ft 1 kts 307°
2026-04-25 13:34 37.93179 23.94462 308 ft 0 kts 307°
2026-04-25 13:35 37.93179 23.94461 308 ft 1 kts 307°
2026-04-25 13:36 37.93185 23.94451 306 ft 2 kts 307°
2026-04-25 13:36 37.93198 23.94430 307 ft 4 kts 307°
2026-04-25 13:36 37.93220 23.94392 306 ft 6 kts 306°
2026-04-25 13:36 37.93250 23.94341 309 ft 8 kts 307°
2026-04-25 13:37 37.93283 23.94273 309 ft 10 kts 281°
2026-04-25 13:37 37.93244 23.94194 307 ft 12 kts 215°
2026-04-25 13:37 37.93169 23.94124 306 ft 14 kts 216°
2026-04-25 13:37 37.93109 23.94068 309 ft 10 kts 217°
2026-04-25 13:38 37.93105 23.93981 307 ft 12 kts 303°
2026-04-25 13:38 37.93142 23.93921 307 ft 13 kts 307°
2026-04-25 13:38 37.93202 23.93823 308 ft 15 kts 307°
2026-04-25 13:38 37.93293 23.93672 308 ft 17 kts 307°
2026-04-25 13:39 37.93343 23.93587 308 ft 18 kts 307°
2026-04-25 13:39 37.93408 23.93479 306 ft 14 kts 307°
2026-04-25 13:39 37.93430 23.93394 304 ft 9 kts 244°
2026-04-25 13:39 37.93380 23.93338 306 ft 11 kts 217°
2026-04-25 13:40 37.93323 23.93283 304 ft 13 kts 217°
2026-04-25 13:40 37.93245 23.93210 305 ft 14 kts 217°
2026-04-25 13:40 37.93160 23.93128 305 ft 16 kts 217°
2026-04-25 13:40 37.93067 23.93040 304 ft 18 kts 217°
2026-04-25 13:41 37.92968 23.92948 305 ft 20 kts 216°
2026-04-25 13:41 37.92854 23.92840 306 ft 21 kts 217°
2026-04-25 13:41 37.92738 23.92729 306 ft 23 kts 217°
2026-04-25 13:41 37.92611 23.92608 307 ft 24 kts 217°
2026-04-25 13:42 37.92472 23.92476 307 ft 26 kts 217°
2026-04-25 13:42 37.92329 23.92340 310 ft 27 kts 217°
2026-04-25 13:42 37.92183 23.92203 310 ft 24 kts 217°
2026-04-25 13:42 37.92110 23.92131 308 ft 8 kts 228°
2026-04-25 13:43 37.92117 23.92058 309 ft 10 kts 309°
2026-04-25 13:43 37.92163 23.91981 310 ft 9 kts 299°
2026-04-25 13:43 37.92195 23.91944 311 ft 6 kts
2026-04-25 13:43 37.92217 23.91958 309 ft 0 kts 36°
2026-04-25 13:44 37.92343 23.92076 309 ft 55 kts 37°
2026-04-25 13:44 37.92822 23.92534 304 ft 116 kts 37°
2026-04-25 13:44 37.93605 23.93275 316 ft 159 kts 37°
2026-04-25 13:45 37.94428 23.94056 821 ft 160 kts 38°
2026-04-25 13:45 37.95344 23.94888 1480 ft 163 kts 35°
2026-04-25 13:45 37.96247 23.95697 2123 ft 165 kts 35°
2026-04-25 13:45 37.97201 23.96563 2692 ft 168 kts 36°
2026-04-25 13:46 37.98136 23.97433 3481 ft 172 kts 37°
2026-04-25 13:46 37.99167 23.98374 4055 ft 193 kts 36°
2026-04-25 13:46 38.00309 23.99427 4698 ft 212 kts 37°
2026-04-25 13:46 38.01580 24.00603 5253 ft 237 kts 37°
2026-04-25 13:47 38.02943 24.01864 6068 ft 248 kts 38°
2026-04-25 13:47 38.04352 24.03169 6971 ft 253 kts 38°
2026-04-25 13:47 38.05781 24.04491 7864 ft 255 kts 38°
2026-04-25 13:47 38.07207 24.05810 8818 ft 257 kts 39°
2026-04-25 13:48 38.08618 24.07237 9802 ft 260 kts 48°
2026-04-25 13:48 38.09579 24.09124 10670 ft 260 kts 72°
2026-04-25 13:48 38.09826 24.11454 11155 ft 279 kts 96°
2026-04-25 13:48 38.09289 24.13938 11480 ft 304 kts 109°
2026-04-25 13:49 38.08477 24.16534 11801 ft 327 kts 114°
2026-04-25 13:49 38.07209 24.18952 12432 ft 340 kts 130°
2026-04-25 13:49 38.05331 24.20809 13242 ft 348 kts 150°
2026-04-25 13:49 38.03000 24.21767 14038 ft 357 kts 168°
2026-04-25 13:50 38.00515 24.22177 14779 ft 362 kts 172°
2026-04-25 13:50 37.97994 24.22541 15509 ft 366 kts 171°
2026-04-25 13:50 37.95496 24.22930 16221 ft 370 kts 171°
2026-04-25 13:50 37.92965 24.23358 16917 ft 374 kts 171°
2026-04-25 13:51 37.90373 24.23807 17618 ft 378 kts 171°
2026-04-25 13:51 37.87754 24.24263 18307 ft 382 kts 170°
2026-04-25 13:51 37.85100 24.24728 18891 ft 386 kts 170°
2026-04-25 13:51 37.82428 24.25198 19485 ft 389 kts 170°
2026-04-25 13:52 37.79731 24.25670 20073 ft 392 kts 170°
2026-04-25 13:52 37.77016 24.26146 20673 ft 396 kts 170°
2026-04-25 13:52 37.74315 24.26619 21268 ft 398 kts 170°
2026-04-25 13:52 37.71560 24.27100 21859 ft 401 kts 170°
2026-04-25 13:53 37.68768 24.27587 22441 ft 404 kts 169°
2026-04-25 13:53 37.65972 24.28077 23012 ft 407 kts 169°
2026-04-25 13:53 37.63157 24.28566 23586 ft 410 kts 169°
2026-04-25 13:53 37.60344 24.29055 24044 ft 413 kts 169°
2026-04-25 13:54 37.57514 24.29755 24500 ft 413 kts 160°
2026-04-25 13:54 37.54900 24.31227 24935 ft 412 kts 146°
2026-04-25 13:54 37.52667 24.33480 25378 ft 412 kts 134°
2026-04-25 13:54 37.50628 24.36032 25805 ft 414 kts 133°
2026-04-25 13:55 37.48591 24.38632 26238 ft 418 kts 133°
2026-04-25 13:55 37.46552 24.41200 26635 ft 421 kts 134°
2026-04-25 13:55 37.44467 24.43799 27051 ft 423 kts 134°
2026-04-25 13:55 37.42355 24.46428 27448 ft 426 kts 134°
2026-04-25 13:56 37.40229 24.49058 27834 ft 429 kts 134°
2026-04-25 13:56 37.38083 24.51709 28228 ft 432 kts 134°
2026-04-25 13:56 37.35957 24.54345 28605 ft 435 kts 134°
2026-04-25 13:56 37.33789 24.57025 28965 ft 437 kts 134°
2026-04-25 13:57 37.31606 24.59715 29338 ft 440 kts 134°
2026-04-25 13:57 37.30153 24.61508 29592 ft 442 kts 134°
2026-04-25 13:57 37.27227 24.65117 30077 ft 444 kts 134°
2026-04-25 13:57 37.25013 24.67837 30459 ft 444 kts 134°
2026-04-25 13:58 37.22801 24.70555 30886 ft 442 kts 134°
2026-04-25 13:58 37.20623 24.73227 31287 ft 442 kts 134°
2026-04-25 13:58 37.18419 24.75914 31721 ft 440 kts 134°
2026-04-25 13:58 37.16218 24.78601 32121 ft 439 kts 134°
2026-04-25 13:59 37.14035 24.81280 32527 ft 438 kts 134°
2026-04-25 13:59 37.11885 24.83925 32907 ft 437 kts 134°
2026-04-25 13:59 37.09717 24.86590 33281 ft 436 kts 134°
2026-04-25 13:59 37.07538 24.89245 33634 ft 436 kts 134°
2026-04-25 14:00 37.05344 24.91887 33959 ft 436 kts 134°
2026-04-25 14:00 37.03159 24.94527 34207 ft 436 kts 134°
2026-04-25 14:00 37.01013 24.97141 34461 ft 436 kts 134°
2026-04-25 14:00 36.98838 24.99792 34701 ft 437 kts 133°
2026-04-25 14:01 36.96650 25.02459 34938 ft 437 kts 134°
2026-04-25 14:01 36.92280 25.07778 34990 ft 441 kts 134°
2026-04-25 14:02 36.87850 25.13096 34972 ft 441 kts 135°
2026-04-25 14:02 36.83428 25.18347 34964 ft 441 kts 134°
2026-04-25 14:03 36.78978 25.23618 34954 ft 440 kts 135°
2026-04-25 14:03 36.74533 25.28878 34945 ft 442 kts 134°
2026-04-25 14:04 36.70060 25.34169 34938 ft 441 kts 135°
2026-04-25 14:04 36.65644 25.39387 34931 ft 439 kts 134°
2026-04-25 14:05 36.61265 25.44683 34926 ft 439 kts 134°
2026-04-25 14:05 36.56898 25.50010 34931 ft 439 kts 134°
2026-04-25 14:06 36.52517 25.55326 34936 ft 439 kts 134°
2026-04-25 14:06 36.48160 25.60605 34935 ft 438 kts 134°
2026-04-25 14:06 36.45990 25.63214 34695 ft 431 kts 135°
2026-04-25 14:07 36.43828 25.65826 33941 ft 434 kts 135°
2026-04-25 14:07 36.41668 25.68440 33183 ft 433 kts 135°
2026-04-25 14:07 36.39508 25.71041 32501 ft 430 kts 134°
2026-04-25 14:07 36.37371 25.73612 32025 ft 423 kts 134°
2026-04-25 14:08 36.35266 25.76147 31502 ft 418 kts 134°
2026-04-25 14:08 36.33189 25.78643 30966 ft 413 kts 134°
2026-04-25 14:08 36.31136 25.81104 30439 ft 409 kts 134°
2026-04-25 14:08 36.29102 25.83546 29902 ft 404 kts 134°
2026-04-25 14:09 36.27093 25.85960 29298 ft 400 kts 133°
2026-04-25 14:09 36.25121 25.88321 28534 ft 400 kts 133°
2026-04-25 14:09 36.23111 25.90733 27604 ft 403 kts 133°
2026-04-25 14:09 36.22429 25.91547 27283 ft 405 kts 133°
2026-04-25 14:10 36.19015 25.95575 25943 ft 407 kts 134°
2026-04-25 14:10 36.16955 25.97997 25092 ft 409 kts 134°
2026-04-25 14:10 36.14895 26.00416 24391 ft 406 kts 134°
2026-04-25 14:10 36.12887 26.02789 23784 ft 402 kts 133°
2026-04-25 14:11 36.10866 26.05178 22925 ft 402 kts 133°
2026-04-25 14:11 36.08796 26.07623 21966 ft 416 kts 134°
2026-04-25 14:11 36.06701 26.10093 21346 ft 414 kts 134°
2026-04-25 14:11 36.04634 26.12522 20651 ft 407 kts 134°
2026-04-25 14:12 36.02592 26.14921 19831 ft 405 kts 134°
2026-04-25 14:12 36.00538 26.17321 18817 ft 407 kts 134°
2026-04-25 14:12 35.98485 26.19729 17916 ft 406 kts 134°
2026-04-25 14:12 35.96443 26.22119 17063 ft 401 kts 135°
2026-04-25 14:13 35.94423 26.24473 16274 ft 396 kts 135°
2026-04-25 14:13 35.92463 26.26765 15526 ft 390 kts 136°
2026-04-25 14:13 35.90507 26.29058 14829 ft 384 kts 136°
2026-04-25 14:13 35.88588 26.31307 14248 ft 375 kts 136°
2026-04-25 14:14 35.86710 26.33503 13661 ft 367 kts 136°
2026-04-25 14:14 35.84875 26.35646 13026 ft 360 kts 136°
2026-04-25 14:14 35.83067 26.37753 12374 ft 354 kts 136°
2026-04-25 14:14 35.81311 26.39799 11736 ft 348 kts 136°
2026-04-25 14:15 35.79568 26.41827 11093 ft 340 kts 136°
2026-04-25 14:15 35.78986 26.42504 10878 ft 337 kts 136°
2026-04-25 14:15 35.76208 26.45734 10040 ft 319 kts 136°
2026-04-25 14:15 35.74633 26.47560 9804 ft 302 kts 136°
2026-04-25 14:16 35.73163 26.49264 9553 ft 286 kts 135°
2026-04-25 14:16 35.71750 26.50903 9308 ft 272 kts 135°
2026-04-25 14:16 35.70413 26.52470 9086 ft 258 kts 133°
2026-04-25 14:16 35.69348 26.54204 8806 ft 251 kts 122°
2026-04-25 14:17 35.68453 26.56043 8457 ft 248 kts 121°
2026-04-25 14:17 35.67574 26.57872 8104 ft 248 kts 121°
2026-04-25 14:17 35.66896 26.59796 7763 ft 252 kts 102°
2026-04-25 14:17 35.66976 26.61961 7466 ft 257 kts 85°
2026-04-25 14:18 35.67310 26.64127 7141 ft 258 kts 83°
2026-04-25 14:18 35.67655 26.66301 6814 ft 258 kts 83°
2026-04-25 14:18 35.67903 26.68463 6540 ft 250 kts 95°
2026-04-25 14:18 35.67417 26.70444 6276 ft 243 kts 121°
2026-04-25 14:19 35.66457 26.72151 5994 ft 242 kts 125°
2026-04-25 14:19 35.65472 26.73827 5686 ft 241 kts 125°
2026-04-25 14:19 35.64509 26.75487 5400 ft 241 kts 124°
2026-04-25 14:19 35.63544 26.77169 5122 ft 240 kts 124°
2026-04-25 14:20 35.62588 26.78846 4831 ft 239 kts 124°
2026-04-25 14:20 35.62265 26.79414 4722 ft 239 kts 124°
2026-04-25 14:20 35.60676 26.82196 4205 ft 238 kts 124°
2026-04-25 14:20 35.59729 26.83863 3900 ft 238 kts 124°
2026-04-25 14:21 35.58792 26.85512 3648 ft 232 kts 124°
2026-04-25 14:21 35.57895 26.87093 3452 ft 224 kts 124°
2026-04-25 14:21 35.57021 26.88638 3263 ft 216 kts 125°
2026-04-25 14:21 35.56170 26.90128 3106 ft 208 kts 125°
2026-04-25 14:22 35.55355 26.91561 2984 ft 202 kts 124°
2026-04-25 14:22 35.54550 26.92974 2968 ft 202 kts 124°
2026-04-25 14:22 35.53748 26.94381 2888 ft 199 kts 124°
2026-04-25 14:22 35.52966 26.95755 2775 ft 198 kts 124°
2026-04-25 14:23 35.52173 26.97139 2654 ft 197 kts 124°
2026-04-25 14:23 35.51390 26.98518 2531 ft 197 kts 124°
2026-04-25 14:23 35.50873 26.99432 2355 ft 196 kts 124°
2026-04-25 14:23 35.49829 27.01259 1909 ft 198 kts 123°
2026-04-25 14:24 35.49043 27.02633 1630 ft 190 kts 123°
2026-04-25 14:24 35.48337 27.03863 1587 ft 160 kts 122°
2026-04-25 14:24 35.47758 27.04893 1584 ft 134 kts 122°
2026-04-25 14:24 35.47417 27.05506 1592 ft 130 kts 122°
2026-04-25 14:25 35.46723 27.06712 1570 ft 131 kts 123°
2026-04-25 14:25 35.46382 27.07304 1465 ft 118 kts 123°
2026-04-25 14:25 35.45920 27.08109 1283 ft 116 kts 122°
2026-04-25 14:25 35.45614 27.08662 1151 ft 116 kts 122°
2026-04-25 14:26 35.45000 27.09740 934 ft 116 kts 124°
2026-04-25 14:26 35.44465 27.10491 770 ft 118 kts 125°
2026-04-25 14:26 35.43953 27.11284 578 ft 119 kts 118°
2026-04-25 14:26 35.43480 27.12134 383 ft 122 kts 117°
2026-04-25 14:27 35.42990 27.13000 180 ft 124 kts 118°
2026-04-25 14:27 35.42507 27.13862 61 ft 118 kts 115°
2026-04-25 14:27 35.42046 27.14670 95 ft 124 kts 119°
2026-04-25 14:27 35.41499 27.15607 783 ft 139 kts 121°
2026-04-25 14:28 35.40898 27.16533 1806 ft 138 kts 128°
2026-04-25 14:28 35.40280 27.17486 2488 ft 156 kts 128°
2026-04-25 14:28 35.39570 27.18625 2847 ft 172 kts 128°
2026-04-25 14:28 35.38803 27.19893 2925 ft 199 kts 127°
2026-04-25 14:29 35.37963 27.21256 2924 ft 200 kts 128°
2026-04-25 14:29 35.37115 27.22608 2989 ft 201 kts 128°
2026-04-25 14:29 35.36263 27.23976 3003 ft 202 kts 128°
2026-04-25 14:29 35.35415 27.25349 3004 ft 202 kts 128°
2026-04-25 14:30 35.34565 27.26728 3003 ft 203 kts 128°
2026-04-25 14:30 35.33769 27.29937 3006 ft 211 kts 89°
2026-04-25 14:30 35.34209 27.31666 3006 ft 218 kts 65°
2026-04-25 14:31 35.35254 27.32997 2997 ft 230 kts 38°
2026-04-25 14:31 35.36807 27.33616 2988 ft 245 kts
2026-04-25 14:31 35.38509 27.33212 2992 ft 255 kts 334°
2026-04-25 14:31 35.39832 27.31785 2998 ft 255 kts 300°
2026-04-25 14:32 35.40419 27.29789 3005 ft 252 kts 276°
2026-04-25 14:32 35.40615 27.28017 3019 ft 251 kts 273°
2026-04-25 14:32 35.40799 27.25887 3038 ft 251 kts 271°
2026-04-25 14:32 35.40938 27.23757 3035 ft 248 kts 269°
2026-04-25 14:33 35.41035 27.21650 2986 ft 247 kts 268°
2026-04-25 14:33 35.41088 27.19548 2934 ft 247 kts 266°
2026-04-25 14:33 35.41123 27.17453 2897 ft 249 kts 271°
2026-04-25 14:33 35.41517 27.15364 2944 ft 252 kts 283°
2026-04-25 14:34 35.41683 27.13253 2947 ft 247 kts 262°
2026-04-25 14:34 35.41521 27.11159 2867 ft 246 kts 259°
2026-04-25 14:34 35.41320 27.09080 2735 ft 245 kts 258°
2026-04-25 14:34 35.41118 27.07033 2610 ft 245 kts 258°
2026-04-25 14:35 35.40911 27.04951 2561 ft 245 kts 258°
2026-04-25 14:35 35.40979 27.02845 2561 ft 252 kts 284°
2026-04-25 14:35 35.41758 27.01062 2576 ft 255 kts 312°
2026-04-25 14:35 35.43060 26.99823 2622 ft 253 kts 333°
2026-04-25 14:36 35.44664 26.99226 2575 ft 244 kts
2026-04-25 14:36 35.46305 26.99536 2584 ft 235 kts 24°
2026-04-25 14:36 35.47652 27.00492 2574 ft 222 kts 50°
2026-04-25 14:36 35.48509 27.01962 2577 ft 204 kts 77°
2026-04-25 14:37 35.48577 27.03555 2569 ft 177 kts 110°
2026-04-25 14:37 35.47988 27.04878 2586 ft 178 kts 123°
2026-04-25 14:37 35.47523 27.06160 2616 ft 154 kts 114°
2026-04-25 14:37 35.46822 27.07012 2510 ft 140 kts 148°
2026-04-25 14:38 35.46012 27.07622 2149 ft 132 kts 135°
2026-04-25 14:38 35.45489 27.08452 1931 ft 115 kts 121°
2026-04-25 14:38 35.45090 27.09272 1682 ft 110 kts 122°
2026-04-25 14:38 35.44663 27.10053 1402 ft 111 kts 124°
2026-04-25 14:39 35.44210 27.10825 1034 ft 114 kts 124°
2026-04-25 14:39 35.43756 27.11626 744 ft 116 kts 122°
2026-04-25 14:39 35.43290 27.12449 417 ft 118 kts 118°
2026-04-25 14:39 35.42825 27.13298 152 ft 122 kts 119°
2026-04-25 14:40 35.42354 27.14134 47 ft 114 kts 118°
2026-04-25 14:40 35.41965 27.14826 54 ft 87 kts 123°
2026-04-25 14:40 35.41712 27.15275 69 ft 33 kts 124°
2026-04-25 14:40 35.41651 27.15382 71 ft 12 kts 125°
2026-04-25 14:41 35.41600 27.15471 82 ft 14 kts 125°
2026-04-25 14:41 35.41550 27.15565 86 ft 7 kts 110°
2026-04-25 14:41 35.41564 27.15621 85 ft 9 kts 23°
2026-04-25 14:41 35.41637 27.15616 85 ft 12 kts 351°
2026-04-25 14:42 35.41686 27.15606 85 ft 0 kts 348°
2026-04-25 14:42 35.41688 27.15605 85 ft 1 kts 340°
2026-04-25 14:42 35.41710 27.15570 82 ft 5 kts 304°
2026-04-25 14:42 35.41734 27.15527 82 ft 7 kts 304°
2026-04-25 14:43 35.41764 27.15472 79 ft 9 kts 304°
2026-04-25 14:43 35.41800 27.15409 74 ft 11 kts 304°
2026-04-25 14:43 35.41845 27.15329 68 ft 12 kts 304°
2026-04-25 14:43 35.41896 27.15238 60 ft 14 kts 304°
2026-04-25 14:44 35.41953 27.15141 60 ft 15 kts 315°
2026-04-25 14:44 35.42047 27.15099 50 ft 14 kts 358°
2026-04-25 14:44 35.42134 27.15094 47 ft 11 kts 357°
2026-04-25 14:44 35.42201 27.15090 42 ft 10 kts 357°
2026-04-25 14:45 35.42267 27.15069 37 ft 9 kts 320°
2026-04-25 14:45 35.42316 27.15007 34 ft 11 kts 313°
2026-04-25 14:45 35.42376 27.14933 33 ft 13 kts 314°
2026-04-25 14:45 35.42448 27.14854 35 ft 16 kts 336°
2026-04-25 14:46 35.42553 27.14856 31 ft 14 kts
2026-04-25 14:46 35.42584 27.14879 31 ft 0 kts 44°